sat.trackr.live / text

‹ back to catalog

TISAT 1

NORAD 36799 · 2010-035E

PAYLOAD ACTIVE UNKNOWN

§ Identity

Operator
Country
SWTZ
Launch date
2010-07-12
Launch site
SRILR
Launch vehicle
Mass (kg)
RCS (m²)
0.05

Purposes: tech_demo

External: N2YO · Heavens-Above · Gunter

§ Orbital elements

Epoch: 2026-09-19T16:08:02.589216Z

Period
93.80 min
Inclination
98.0779°
Eccentricity
0.0000379
Mean motion
15.35118982 rev/d
Perigee alt
460.3 km
Apogee alt
460.8 km
Semi-major
6,838.7 km
B*
4.9011e-4
RAAN
217.8973°
Arg perigee
99.5988°
Mean anomaly
260.5296°
Rev number
88,218

§ Raw data

TISAT 11 36799U 10035E   26262.67225219  .00016631  00000+0  49011-3 0  99992 36799  98.0779 217.8973 0000379  99.5988 260.5296 15.35118982882180

JSON: /api/v1/satellites/36799 · /tle

For live sub-satellite position, see the globe view (requires WebGL).

§ Visibility from observer

Set your observer location to see the next 7 days of passes ≥ 10°. The values pass through the URL so the page stays shareable.

No JS? Fill the form by hand. The geolocation button needs JavaScript.

§ Radio — SatNOGS DB

ModeDescriptionDownlinkUplink
CW CW TLM 19wpm 437.305 MHz
FM DOWN: CW in FM, UP: DTMF commands 145.980 MHz 145.980 MHz

2 transmitters · refreshed weekly from db.satnogs.org